Three Rivers, MI

7:50 PM EDT on August 22, 2017 (GMT -0400)
Three Rivers Municipal-Haines

Weather History for KHAI - August, 2013

Change the Weather History Date:

Tuesday, August 13, 2013

  Actual Average Record
Temperature  
Mean Temperature 60 °F -  
Max Temperature 67 °F 81 °F 93 °F (1988)
Min Temperature 53 °F 57 °F 44 °F (1954)
Degree Days  
Heating Degree Days 4    
Growing Degree Days 10 (Base 50)    
Moisture  
Dew Point 52 °F    
Average Humidity 75    
Maximum Humidity 96    
Minimum Humidity 50    
Precipitation  
Precipitation 0.00 in - - ()
Sea Level Pressure  
Sea Level Pressure 30.02 in    
Wind  
Wind Speed 6 mph (NNW)    
Max Wind Speed 13 mph    
Max Gust Speed 21 mph    
Visibility 9 miles    
Events Fog    
Averages and records for this station are not official NWS values.
T = Trace of Precipitation, MM = Missing Value Source: NWS Daily Summary

Daily Weather History Graph

Daily Weather History Graph

Search for Another Location

Airport or City:

Trip Planner

Search our weather history database for the weather conditions in past years. The results will help you decide how hot, cold, wet, or windy it might be!

Date:

Astronomy

Aug. 13, 2013 Rise Set
Actual Time 6:48 AM EDT 8:45 PM EDT
Civil Twilight 6:18 AM EDT 9:15 PM EDT
Nautical Twilight 5:41 AM EDT 9:52 PM EDT
Astronomical Twilight 5:01 AM EDT 10:31 PM EDT
Moon 1:50 PM EDT (8/13) No Moon Set
Length of Visible Light 14h 57m
Length of Day
13h 56m
Waxing Crescent, 41% of the Moon is Illuminated
Aug 13
Waxing Crescent
Aug 14
First Quarter
Aug 20
Full
Aug 28
Last Quarter
Sep 5
New

Hourly Weather History & Observations

Time (EDT) Temp. Dew Point Humidity Pressure Visibility Wind Dir Wind Speed Gust Speed Precip Events Conditions
12:14 AM 66.2 °F 64.6 °F 94% 29.91 in 0.5 mi NW 4.6 mph - N/A Fog Fog
12:34 AM 66.2 °F 65.1 °F 96% 29.91 in 1.2 mi NNW 5.8 mph - N/A   Overcast
12:53 AM 65.8 °F 64.6 °F 96% 29.92 in 3.0 mi NW 3.5 mph - N/A   Overcast
1:14 AM 65.3 °F 63.9 °F 95% 29.91 in 3.0 mi NNW 4.6 mph - N/A   Scattered Clouds
1:33 AM 64.6 °F 63.1 °F 95% 29.91 in 4.0 mi NW 3.5 mph - N/A   Clear
1:53 AM 64.0 °F 62.2 °F 94% 29.91 in 7.0 mi Calm Calm - N/A   Scattered Clouds
2:14 AM 63.3 °F 61.2 °F 93% 29.91 in 5.0 mi Calm Calm - N/A   Clear
2:33 AM 62.6 °F 60.6 °F 93% 29.91 in 5.0 mi NW 3.5 mph - N/A   Clear
2:53 AM 62.1 °F 60.1 °F 93% 29.91 in 5.0 mi NW 3.5 mph - N/A   Clear
3:14 AM 61.7 °F 59.9 °F 94% 29.91 in 7.0 mi NW 3.5 mph - N/A   Clear
3:33 AM 61.0 °F 59.0 °F 93% 29.91 in 7.0 mi NNW 4.6 mph - N/A   Clear
3:53 AM 60.8 °F 59.0 °F 94% 29.91 in 5.0 mi NNW 4.6 mph - N/A   Clear
4:14 AM 60.3 °F 58.3 °F 93% 29.91 in 7.0 mi NNW 3.5 mph - N/A   Clear
4:33 AM 59.9 °F 57.7 °F 93% 29.92 in 10.0 mi NNW 4.6 mph - N/A   Clear
4:53 AM 59.5 °F 57.2 °F 92% 29.92 in 10.0 mi North 4.6 mph - N/A   Clear
5:14 AM 59.0 °F 56.7 °F 92% 29.93 in 10.0 mi NNW 4.6 mph - N/A   Clear
5:33 AM 58.6 °F 56.3 °F 92% 29.94 in 10.0 mi NNW 5.8 mph - N/A   Clear
5:54 AM 58.1 °F 55.6 °F 91% 29.95 in 10.0 mi North 4.6 mph - N/A   Clear
6:14 AM 57.4 °F 55.0 °F 92% 29.95 in 10.0 mi North 3.5 mph - N/A   Clear
6:33 AM 57.2 °F 55.0 °F 92% 29.96 in 10.0 mi North 4.6 mph - N/A   Clear
6:54 AM 56.7 °F 54.5 °F 92% 29.96 in 10.0 mi North 4.6 mph - N/A   Scattered Clouds
7:13 AM 56.7 °F 54.5 °F 92% 29.98 in 10.0 mi North 5.8 mph - N/A   Mostly Cloudy
7:33 AM 56.3 °F 54.0 °F 92% 29.98 in 10.0 mi North 6.9 mph - N/A   Overcast
7:54 AM 56.3 °F 53.6 °F 91% 30.00 in 10.0 mi North 5.8 mph - N/A   Mostly Cloudy
8:13 AM 55.8 °F 52.9 °F 90% 30.01 in 10.0 mi North 8.1 mph - N/A   Mostly Cloudy
8:33 AM 55.8 °F 52.7 °F 89% 30.03 in 10.0 mi North 8.1 mph - N/A   Mostly Cloudy
8:54 AM 55.9 °F 52.0 °F 87% 30.03 in 10.0 mi North 6.9 mph - N/A   Overcast
9:13 AM 56.3 °F 51.8 °F 85% 30.04 in 10.0 mi North 6.9 mph - N/A   Mostly Cloudy
9:33 AM 56.8 °F 51.4 °F 82% 30.03 in 10.0 mi North 9.2 mph - N/A   Scattered Clouds
9:54 AM 57.9 °F 50.4 °F 76% 30.03 in 10.0 mi North 6.9 mph - N/A   Scattered Clouds
10:13 AM 59.0 °F 50.0 °F 72% 30.03 in 10.0 mi NNW 10.4 mph 16.1 mph N/A   Scattered Clouds
10:33 AM 59.7 °F 50.4 °F 71% 30.03 in 10.0 mi North 9.2 mph 18.4 mph N/A   Scattered Clouds
10:54 AM 60.4 °F 48.6 °F 65% 30.04 in 10.0 mi North 11.5 mph 17.3 mph N/A   Clear
11:13 AM 61.2 °F 48.7 °F 64% 30.05 in 10.0 mi NNW 11.5 mph 17.3 mph N/A   Scattered Clouds
11:34 AM 62.1 °F 48.4 °F 61% 30.05 in 10.0 mi NNW 8.1 mph - N/A   Scattered Clouds
11:53 AM 62.1 °F 47.1 °F 58% 30.05 in 10.0 mi North 5.8 mph - N/A   Scattered Clouds
12:13 PM 63.0 °F 46.4 °F 55% 30.06 in 10.0 mi North 9.2 mph - N/A   Scattered Clouds
12:34 PM 64.2 °F 48.2 °F 56% 30.06 in 10.0 mi North 10.4 mph - N/A   Clear
12:53 PM 64.6 °F 46.6 °F 52% 30.06 in 10.0 mi NNW 8.1 mph 16.1 mph N/A   Clear
1:14 PM 64.9 °F 47.8 °F 54% 30.06 in 10.0 mi North 6.9 mph 18.4 mph N/A   Scattered Clouds
1:34 PM 64.8 °F 48.4 °F 55% 30.06 in 10.0 mi NNW 8.1 mph - N/A   Scattered Clouds
1:53 PM 63.7 °F 49.1 °F 59% 30.06 in 10.0 mi North 5.8 mph - N/A   Mostly Cloudy
2:14 PM 65.1 °F 48.0 °F 54% 30.07 in 10.0 mi NNW 6.9 mph 17.3 mph N/A   Mostly Cloudy
2:33 PM 64.4 °F 48.0 °F 55% 30.07 in 10.0 mi North 6.9 mph - N/A   Mostly Cloudy
2:53 PM 64.9 °F 48.0 °F 54% 30.07 in 10.0 mi NNW 6.9 mph 19.6 mph N/A   Mostly Cloudy
3:14 PM 65.1 °F 47.8 °F 54% 30.07 in 10.0 mi North 9.2 mph - N/A   Mostly Cloudy
3:33 PM 66.4 °F 48.0 °F 52% 30.07 in 10.0 mi NNW 8.1 mph - N/A   Mostly Cloudy
3:53 PM 64.9 °F 47.7 °F 54% 30.07 in 10.0 mi NW 12.7 mph - N/A   Mostly Cloudy
4:14 PM 66.4 °F 47.3 °F 50% 30.07 in 10.0 mi NNW 12.7 mph 16.1 mph N/A   Mostly Cloudy
4:33 PM 67.5 °F 48.0 °F 50% 30.07 in 10.0 mi North 5.8 mph - N/A   Mostly Cloudy
4:53 PM 65.1 °F 46.0 °F 50% 30.07 in 10.0 mi North 4.6 mph 20.7 mph N/A   Overcast
5:13 PM 65.7 °F 47.7 °F 52% 30.07 in 10.0 mi North 3.5 mph 16.1 mph N/A   Overcast
5:33 PM 65.5 °F 48.7 °F 55% 30.07 in 10.0 mi NNW 9.2 mph - N/A   Overcast
5:54 PM 63.5 °F 49.3 °F 60% 30.07 in 10.0 mi NW 6.9 mph - N/A   Scattered Clouds
6:13 PM 63.9 °F 50.4 °F 61% 30.07 in 10.0 mi NW 9.2 mph - N/A   Scattered Clouds
6:33 PM 64.9 °F 50.4 °F 59% 30.07 in 10.0 mi WNW 10.4 mph - N/A   Mostly Cloudy
6:54 PM 64.8 °F 49.8 °F 58% 30.07 in 10.0 mi NW 9.2 mph - N/A   Mostly Cloudy
7:13 PM 63.1 °F 48.7 °F 59% 30.07 in 10.0 mi NW 12.7 mph 18.4 mph N/A   Scattered Clouds
7:33 PM 62.2 °F 49.1 °F 62% 30.07 in 10.0 mi NW 9.2 mph - N/A   Scattered Clouds
7:54 PM 62.1 °F 49.3 °F 63% 30.07 in 10.0 mi WNW 11.5 mph 16.1 mph N/A   Scattered Clouds
8:13 PM 61.0 °F 49.5 °F 66% 30.07 in 10.0 mi NW 9.2 mph 19.6 mph N/A   Clear
8:34 PM 59.9 °F 49.8 °F 69% 30.07 in 10.0 mi NW 6.9 mph - N/A   Clear
8:53 PM 58.6 °F 50.0 °F 73% 30.07 in 10.0 mi NW 5.8 mph - N/A   Clear
9:13 PM 58.1 °F 50.0 °F 74% 30.08 in 10.0 mi NW 3.5 mph - N/A   Clear
9:34 PM 56.8 °F 50.0 °F 78% 30.08 in 10.0 mi NW 4.6 mph - N/A   Clear
9:53 PM 56.3 °F 49.8 °F 79% 30.09 in 10.0 mi NW 3.5 mph - N/A   Clear
10:13 PM 55.6 °F 49.6 °F 80% 30.10 in 10.0 mi NW 4.6 mph - N/A   Clear
10:34 PM 55.0 °F 49.3 °F 81% 30.10 in 10.0 mi NW 3.5 mph - N/A   Clear
10:53 PM 54.7 °F 49.1 °F 81% 30.11 in 10.0 mi NNW 4.6 mph - N/A   Clear
11:13 PM 54.1 °F 48.6 °F 81% 30.11 in 10.0 mi NNW 5.8 mph - N/A   Clear
11:34 PM 54.0 °F 48.0 °F 80% 30.12 in 10.0 mi NW 6.9 mph - N/A   Clear
11:53 PM 53.6 °F 47.5 °F 80% 30.12 in 10.0 mi NNW 4.6 mph - N/A   Clear